Weather History for Prestwick, United Kingdom

Change the Weather History Date:

Thursday, April 18, 2013

  Actual Average Record
Temperature  
Mean Temperature 48 °F -  
Max Temperature 51 °F 55 °F 69 °F (2003)
Min Temperature 44 °F 41 °F 26 °F (1998)
Degree Days  
Heating Degree Days 18    
Moisture  
Dew Point 43 °F    
Average Humidity 82    
Maximum Humidity 93    
Minimum Humidity 71    
Precipitation  
Precipitation 0.00 in - - ()
Sea Level Pressure  
Sea Level Pressure 29.54 in    
Wind  
Wind Speed 19 mph ()    
Max Wind Speed 30 mph    
Max Gust Speed 41 mph    
Visibility 5.9 miles    
Events Rain    
Averages and records for this station are not official NWS values.
T = Trace of Precipitation, MM = Missing Value Source: Averaged Metar Reports

Daily Weather History Graph

Daily Weather History Graph

Search for Another Location

Airport:

Trip Planner

Search our weather history database for the weather conditions in past years. The results will help you decide how hot, cold, wet, or windy it might be!

Date:

Astronomy

Apr. 18, 2013 Rise Set
Actual Time 6:06 AM BST 8:30 PM BST
Civil Twilight 5:26 AM BST 9:10 PM BST
Nautical Twilight 4:34 AM BST 10:02 PM BST
Astronomical Twilight 3:31 AM BST 11:07 PM BST
Moon 11:50 AM BST (4/18) 2:52 AM BST (4/18)
Length of Visible Light 15h 44m
Length of Day
14h 23m
Waxing Crescent, 49% of the Moon is Illuminated
Apr 18
Waxing Crescent
Apr 18
First Quarter
Apr 25
Full
May 2
Last Quarter
May 10
New

Hourly Weather History & Observations

Time (BST) Temp. Windchill Dew Point Humidity Pressure Visibility Wind Dir Wind Speed Gust Speed Precip Events Conditions
12:20 AM 48.2 °F - 44.6 °F 87% 29.09 in 5.0 mi South 23.0 mph - N/A Rain Rain Showers
12:50 AM 48.2 °F - 46.4 °F 93% 29.09 in 5.0 mi South 23.0 mph - N/A Rain Rain Showers
1:50 AM 50.0 °F - 46.4 °F 87% 29.12 in 4.3 mi SSW 24.2 mph 36.8 mph N/A Rain Rain Showers
2:50 AM 48.2 °F - 46.4 °F 93% 29.12 in 4.3 mi SSW 21.9 mph - N/A Rain Light Rain Showers
3:50 AM 48.2 °F - 46.4 °F 93% 29.15 in 4.3 mi SSW 20.7 mph - N/A Rain Light Rain Showers
4:50 AM 46.4 °F 38.1 °F 44.6 °F 93% 29.21 in 4.3 mi West 24.2 mph - N/A Rain Light Rain Showers
5:50 AM 46.4 °F 37.2 °F 41.0 °F 81% 29.27 in 6.2 mi West 29.9 mph - N/A   Scattered Clouds
6:50 AM 46.4 °F 38.5 °F 41.0 °F 81% 29.33 in 4.3 mi WSW 21.9 mph - N/A   Scattered Clouds
7:20 AM 46.4 °F 38.3 °F 41.0 °F 81% 29.36 in 4.3 mi WSW 23.0 mph 34.5 mph N/A   Scattered Clouds
7:50 AM 46.4 °F 38.1 °F 39.2 °F 76% 29.39 in 6.2 mi West 24.2 mph 38.0 mph N/A   Partly Cloudy
8:20 AM 46.4 °F 38.5 °F 41.0 °F 81% 29.42 in 6.2 mi WSW 21.9 mph - N/A   Partly Cloudy
8:50 AM 46.4 °F 39.2 °F 39.2 °F 76% 29.44 in 6.2 mi WSW 18.4 mph - N/A   Scattered Clouds
9:20 AM 46.4 °F 38.7 °F 41.0 °F 81% 29.44 in 6.2 mi SW 20.7 mph - N/A Rain Light Rain Showers
9:50 AM 48.2 °F - 42.8 °F 82% 29.44 in 6.2 mi SW 24.2 mph - N/A Rain Light Rain Showers
10:20 AM 46.4 °F 37.7 °F 41.0 °F 81% 29.47 in 6.2 mi SW 26.5 mph 41.4 mph N/A Rain Light Rain Showers
10:50 AM 46.4 °F 38.5 °F 41.0 °F 81% 29.47 in 6.2 mi WSW 21.9 mph - N/A Rain Light Rain Showers
11:20 AM 48.2 °F - 42.8 °F 82% 29.47 in 6.2 mi SW 20.7 mph - N/A   Scattered Clouds
11:50 AM 48.2 °F - 42.8 °F 82% 29.50 in 6.2 mi SW 20.7 mph - N/A   Scattered Clouds
12:20 PM 48.2 °F - 42.8 °F 82% 29.50 in 6.2 mi SW 21.9 mph - N/A   Scattered Clouds
12:50 PM 48.2 °F - 42.8 °F 82% 29.53 in 6.2 mi SW 18.4 mph - N/A   Scattered Clouds
1:20 PM 50.0 °F - 42.8 °F 76% 29.53 in 6.2 mi WSW 21.9 mph - N/A   Scattered Clouds
1:50 PM 51.8 °F - 44.6 °F 76% 29.56 in 6.2 mi WSW 21.9 mph - N/A   Scattered Clouds
2:50 PM 50.0 °F - 42.8 °F 76% 29.59 in 6.2 mi WSW 18.4 mph - N/A Rain Light Rain Showers
3:20 PM 51.8 °F - 44.6 °F 76% 29.59 in 6.2 mi WSW 16.1 mph - N/A Rain Light Rain Showers
3:50 PM 51.8 °F - 42.8 °F 71% 29.62 in 6.2 mi WSW 17.3 mph - N/A   Scattered Clouds
4:20 PM 51.8 °F - 42.8 °F 71% 29.62 in 6.2 mi West 17.3 mph - N/A   Scattered Clouds
4:50 PM 51.8 °F - 42.8 °F 71% 29.65 in 6.2 mi West 17.3 mph - N/A   Scattered Clouds
5:20 PM 48.2 °F - 42.8 °F 82% 29.65 in 6.2 mi West 18.4 mph - N/A   Scattered Clouds
5:50 PM 50.0 °F - 42.8 °F 76% 29.68 in 6.2 mi West 15.0 mph - N/A   Scattered Clouds
6:20 PM 48.2 °F - 42.8 °F 82% 29.71 in 6.2 mi West 13.8 mph - N/A   Scattered Clouds
6:50 PM 48.2 °F - 41.0 °F 76% 29.71 in 6.2 mi West 15.0 mph - N/A   Mostly Cloudy
7:20 PM 48.2 °F - 42.8 °F 82% 29.74 in 6.2 mi West 13.8 mph - N/A   Mostly Cloudy
7:50 PM 46.4 °F 40.4 °F 42.8 °F 87% 29.77 in 6.2 mi WNW 13.8 mph - N/A   Scattered Clouds
8:20 PM 46.4 °F 40.1 °F 42.8 °F 87% 29.80 in 6.2 mi WNW 15.0 mph - N/A   Scattered Clouds
8:50 PM 46.4 °F 40.7 °F 42.8 °F 87% 29.83 in 6.2 mi WNW 12.7 mph - N/A   Scattered Clouds
9:20 PM 46.4 °F 40.4 °F 41.0 °F 81% 29.83 in 6.2 mi WNW 13.8 mph - N/A   Scattered Clouds
9:50 PM 46.4 °F 40.7 °F 41.0 °F 81% 29.86 in 6.2 mi WNW 12.7 mph - N/A   Scattered Clouds
10:20 PM 46.4 °F 40.1 °F 41.0 °F 81% 29.89 in 6.2 mi WNW 15.0 mph - N/A   Scattered Clouds
10:50 PM 44.6 °F 38.1 °F 41.0 °F 87% 29.92 in 6.2 mi WNW 13.8 mph - N/A   Scattered Clouds
11:20 PM 44.6 °F 37.8 °F 41.0 °F 87% 29.92 in 6.2 mi West 15.0 mph - N/A   Scattered Clouds
11:50 PM 44.6 °F 37.4 °F 41.0 °F 87% 29.95 in 6.2 mi WNW 16.1 mph - N/A   Scattered Clouds